[[{"header":{"parameterUnit":"m.s-1","parameterCategory":1,"la1":30.2991,"la2":30.254,"lo1":-89.0895,"lo2":-89.0444,"dy":0.0017,"dx":0.0017,"nx":28,"ny":28,"refTime":"2025-05-26T03:00:00:Z","depth":0,"parameterNumber":2,"parameterNumberName":"U-component_of_WINDS"},"data":[0,0,0,0,0,0,0,0,0,0,0,0,0,0,0,0,0,0,0,0,0,0,0,0,0,0,0,0,0,0,0,0,0,0,0,0,0,0,0,0,0,0,0,0,0,0,0,0,0,0,0,0,0,0,0,0,0,0,1.0953,1.0953,0,1.1042,1.1043,1.1044,1.1052,1.1051,1.105,1.1049,1.1144,1.1147,1.1151,0,0,0,0,0,0,0,0,0,0,0,0,0,1.079,1.0793,1.0952,1.0954,1.0955,1.1042,1.1043,1.1044,1.1052,1.1051,1.105,1.1049,1.1143,1.1147,1.1151,0,0,0,0,0,0,0,0,0,0,0,0,0,1.0868,1.0794,1.0952,1.0969,1.0971,1.1042,1.1043,1.1045,1.1053,1.1051,1.105,1.1048,1.1142,1.1147,1.1152,1.1212,0,0,1.1167,1.117,0,0,0,0,0,0,0,0,1.0864,1.0874,1.0965,1.0968,1.0971,1.1034,1.1021,1.1101,1.1053,1.1022,1.1049,1.1048,1.1109,1.1117,1.1137,1.1217,1.1221,1.1168,1.1171,1.1173,1.1175,0,0,0,0,0,0,0,1.0858,1.087,1.0988,1.0967,1.097,1.0973,1.0982,1.1036,1.1073,1.1024,1.1025,1.1036,1.111,1.1132,1.1139,1.1222,1.1168,1.1172,1.1175,1.1177,1.1355,1.1356,0,0,0,0,0,0,1.0849,1.0866,1.0985,1.0991,1.0912,1.0977,1.0987,1.1015,1.1072,1.1079,1.1037,1.1036,1.1124,1.1133,1.1142,1.1216,1.1173,1.1178,1.1181,1.1353,1.1355,1.1357,0,0,0,0,0,0,1.0846,1.086,1.0982,1.0928,1.0944,1.0981,1.1013,1.1018,1.104,1.1081,1.1088,1.1052,1.1123,1.1135,1.1194,1.1219,1.118,1.1185,1.1351,1.1354,1.1356,1.1364,0,0,0,0,0,0,1.0841,1.0859,1.0882,1.0929,1.0947,1.1031,1.1014,1.1021,1.1048,1.1047,1.1097,1.1104,1.1123,1.1187,1.1199,1.1226,1.1189,1.1349,1.1352,1.1355,1.1362,1.1366,1.137,0,0,0,0,0,1.0835,1.0881,1.0883,1.0897,1.0976,1.1033,1.1043,1.1063,1.105,1.1074,1.11,1.1103,1.1215,1.1192,1.1207,1.1235,1.1348,1.1351,1.1355,1.136,1.1365,1.137,0,0,0,0,0,0,1.0837,1.0888,1.089,1.0953,1.0988,1.1034,1.1064,1.1069,1.1109,1.1107,1.1131,1.1142,1.12,1.1224,1.1198,1.1296,1.128,1.1287,1.1278,1.1284,1.1289,1.1281,1.1193,0,0,0,0,0,1.0845,1.0886,1.0928,1.0979,1.0997,1.1027,1.1053,1.1065,1.1103,1.1118,1.1149,1.1187,1.123,1.1259,1.1301,1.1365,1.1376,1.1392,1.1396,1.14,1.1405,1.1439,1.1447,1.1369,1.1369,1.1369,0,0,1.0861,1.0894,1.0918,1.098,1.1009,1.1051,1.104,1.1086,1.1117,1.1126,1.1182,1.1207,1.125,1.1311,1.134,1.1333,1.1429,1.1404,1.1407,1.141,1.1444,1.1451,1.1458,1.1372,1.1371,1.1371,0,0,1.0912,1.0941,1.0986,1.1015,1.1059,1.1079,1.1089,1.1134,1.115,1.1207,1.1214,1.1253,1.1328,1.1358,1.1383,1.1444,1.1448,1.1458,1.148,1.1514,1.152,1.1525,1.1546,1.1554,1.1463,1.1463,1.1463,0,1.0927,1.099,1.1009,1.1054,1.1081,1.1089,1.1135,1.1162,1.1218,1.1236,1.1227,1.132,1.135,1.1418,1.1433,1.1453,1.1466,1.1452,1.1517,1.1523,1.1528,1.1549,1.1557,1.1464,1.1464,1.1464,1.1463,0,1.1006,1.105,1.1081,1.1133,1.1163,1.1208,1.1234,1.1263,1.1272,1.1293,1.135,1.1387,1.1436,1.1453,1.1463,1.1522,1.1516,1.1512,1.1496,1.1536,1.1556,1.1564,1.1465,1.1465,1.1464,1.1464,0,0,1.1062,1.1122,1.1133,1.1156,1.1204,1.1238,1.1284,1.1331,1.1354,1.1392,1.1431,1.1493,1.1489,1.1518,1.1531,1.156,1.1605,1.1552,1.1554,1.156,1.1671,1.1674,1.1682,1.1608,1.1609,1.161,1.1667,0,1.1117,1.1197,1.1215,1.1283,1.1323,1.1331,1.1371,1.1404,1.1425,1.1463,1.1486,1.1529,1.1521,1.1538,1.1567,1.1593,1.1628,1.159,1.1644,1.1645,1.1632,1.1693,1.1696,1.1747,1.1675,1.1676,1.1677,0,1.1193,1.1231,1.1303,1.1344,1.1362,1.1397,1.144,1.1476,1.1515,1.1528,1.1559,1.1569,1.1616,1.1598,1.1664,1.1637,1.1661,1.1677,1.1679,1.1685,1.1663,1.1699,1.1765,1.1772,1.169,1.1689,1.1688,0,1.1224,1.1294,1.1346,1.1365,1.1415,1.1439,1.1461,1.1498,1.1525,1.1564,1.1581,1.1626,1.165,1.1684,1.1706,1.169,1.1769,1.1753,1.1781,1.1781,1.1797,1.1796,1.1867,1.1813,1.1813,1.1813,1.1813,0,1.1284,1.1328,1.136,1.1392,1.1441,1.1461,1.1509,1.1532,1.1564,1.1601,1.1611,1.1645,1.1672,1.171,1.1728,1.1779,1.179,1.1802,1.1806,1.1801,1.1799,1.1816,1.1813,1.1815,1.1815,1.1814,1.1814,0,1.1328,1.1351,1.1408,1.145,1.1462,1.1496,1.1532,1.1563,1.1584,1.163,1.1642,1.1674,1.1719,1.1744,1.1802,1.1813,1.187,1.1873,1.1857,1.1858,1.1885,1.1881,1.1968,1.198,1.192,1.192,1.1921,0,1.1364,1.1398,1.1443,1.1467,1.1489,1.1529,1.1556,1.1577,1.1604,1.165,1.1676,1.1721,1.1758,1.183,1.1859,1.1903,1.1906,1.1934,1.1913,1.1906,1.1906,1.1903,1.1906,1.1937,1.1938,1.1938,1.1939,0,1.1425,1.1435,1.1473,1.1514,1.1545,1.1579,1.1613,1.1633,1.166,1.169,1.1736,1.1765,1.1822,1.1867,1.1912,1.1936,1.1942,1.1945,1.1953,1.1948,1.1937,1.1942,1.1865,1.1943,1.1942,1.1942,1.1942,1.1942,1.1466,1.1495,1.1531,1.1573,1.16,1.1631,1.1662,1.1685,1.1723,1.1771,1.1781,1.1829,1.1866,1.1928,1.1952,1.199,1.1985,1.1998,1.2001,1.2004,1.2004,1.1931,1.1999,1.1999,1.1999,1.1999,1.1999,0,1.1527,1.155,1.1588,1.1634,1.1666,1.1668,1.1705,1.1732,1.1773,1.1807,1.1843,1.1895,1.1938,1.197,1.2015,1.2039,1.2042,1.205,1.2048,1.2053,1.2007,1.1994,1.2046,1.2046,1.2046,1.2046,1.2046,1.2046,1.1562,1.1612,1.1626,1.1689,1.1712,1.1758,1.1779,1.1807,1.1834,1.1891,1.1926,1.1946,1.198,1.2026,1.2066,1.2074,1.209,1.2096,1.2105,1.2061,1.2056,1.2051,1.204,1.21,1.21,1.2148,1.2148,1.2148]},{"header":{"parameterUnit":"m.s-1","parameterCategory":1,"la1":30.2991,"la2":30.254,"lo1":-89.0895,"lo2":-89.0444,"dy":0.0017,"dx":0.0017,"nx":28,"ny":28,"refTime":"2025-05-26T03:00:00:Z","depth":0,"parameterNumber":3,"parameterNumberName":"V-component_of_WINDS"},"data":[0,0,0,0,0,0,0,0,0,0,0,0,0,0,0,0,0,0,0,0,0,0,0,0,0,0,0,0,0,0,0,0,0,0,0,0,0,0,0,0,0,0,0,0,0,0,0,0,0,0,0,0,0,0,0,0,0,0,5.1609,5.161,0,5.1745,5.1747,5.1748,5.1719,5.1717,5.1714,5.1712,5.1844,5.185,5.1856,0,0,0,0,0,0,0,0,0,0,0,0,0,5.1316,5.1322,5.1608,5.161,5.1612,5.1745,5.1747,5.1749,5.172,5.1717,5.1713,5.1711,5.1842,5.1849,5.1856,0,0,0,0,0,0,0,0,0,0,0,0,0,5.1447,5.1323,5.1608,5.1614,5.1615,5.1745,5.1747,5.1749,5.172,5.1716,5.1713,5.1709,5.184,5.1848,5.1857,5.1987,0,0,5.1884,5.1888,0,0,0,0,0,0,0,0,5.1439,5.1457,5.1611,5.1613,5.1616,5.1711,5.1692,5.1829,5.1721,5.168,5.1712,5.1707,5.1803,5.1814,5.1848,5.1993,5.1999,5.1885,5.189,5.1894,5.1896,0,0,0,0,0,0,0,5.143,5.1451,5.1662,5.1613,5.1616,5.1607,5.1622,5.1718,5.1761,5.1683,5.1682,5.1699,5.1803,5.1839,5.1851,5.2001,5.1885,5.1892,5.1898,5.1901,5.2261,5.2265,0,0,0,0,0,0,5.142,5.1444,5.1658,5.1666,5.1517,5.1616,5.1632,5.1684,5.176,5.1768,5.1702,5.1697,5.1826,5.1841,5.1855,5.2013,5.1894,5.1902,5.1907,5.2256,5.2262,5.2266,0,0,0,0,0,0,5.1414,5.144,5.1652,5.1555,5.1581,5.1625,5.1684,5.1689,5.1726,5.1774,5.178,5.1732,5.1824,5.1843,5.1955,5.2017,5.1906,5.1914,5.2251,5.2258,5.2264,5.2329,0,0,0,0,0,0,5.1406,5.1437,5.1489,5.1556,5.1587,5.1752,5.1688,5.1695,5.1742,5.1737,5.1803,5.1811,5.1822,5.1942,5.1964,5.2027,5.1921,5.2246,5.2254,5.2262,5.2322,5.2337,5.235,0,0,0,0,0,5.1395,5.15,5.1491,5.1517,5.1652,5.1756,5.1773,5.1787,5.1747,5.1798,5.1829,5.1808,5.2007,5.1954,5.1978,5.2045,5.2242,5.2252,5.2261,5.2315,5.2334,5.235,0,0,0,0,0,0,5.1435,5.1508,5.15,5.163,5.1687,5.1751,5.1815,5.1806,5.1873,5.1865,5.1877,5.1892,5.2007,5.2037,5.1977,5.2175,5.2119,5.2134,5.2151,5.217,5.2183,5.2173,5.1928,0,0,0,0,0,5.1459,5.154,5.1599,5.1707,5.1737,5.1772,5.1817,5.1823,5.1882,5.1905,5.1944,5.2,5.2075,5.2124,5.2195,5.2326,5.234,5.2384,5.2398,5.241,5.2422,5.2494,5.2514,5.2298,5.2298,5.2297,0,0,5.1509,5.1559,5.1609,5.1717,5.1762,5.1843,5.1792,5.1879,5.194,5.1917,5.2027,5.2058,5.2121,5.2243,5.2299,5.2272,5.2485,5.2422,5.2431,5.2437,5.2506,5.2526,5.2544,5.2304,5.2303,5.2302,0,0,5.1642,5.1688,5.1785,5.1832,5.1902,5.1925,5.1948,5.2014,5.2034,5.2145,5.2131,5.2201,5.233,5.2376,5.2416,5.2569,5.2552,5.2591,5.2665,5.2735,5.2752,5.2767,5.2822,5.2841,5.2604,5.2604,5.2604,0,5.1694,5.1818,5.1834,5.1925,5.1972,5.196,5.2056,5.21,5.2189,5.2221,5.2191,5.2354,5.2395,5.2528,5.2566,5.2599,5.2625,5.2583,5.2749,5.2764,5.2778,5.283,5.2851,5.2608,5.2608,5.2607,5.2607,0,5.1879,5.1966,5.2035,5.2125,5.218,5.2273,5.2301,5.2355,5.2357,5.2382,5.2495,5.2545,5.2627,5.2659,5.266,5.2793,5.2774,5.2746,5.2689,5.2803,5.2852,5.2872,5.2614,5.2613,5.2612,5.261,0,0,5.2039,5.2139,5.2163,5.2205,5.2282,5.2348,5.244,5.2524,5.2569,5.2631,5.2708,5.2819,5.2794,5.284,5.2846,5.2908,5.3026,5.2872,5.2874,5.2899,5.3175,5.3196,5.3219,5.3016,5.302,5.3023,5.317,0,5.2178,5.2344,5.2362,5.2509,5.2588,5.2579,5.2659,5.2714,5.2741,5.2811,5.2839,5.2918,5.2879,5.2907,5.2967,5.2999,5.3081,5.2988,5.3086,5.3089,5.307,5.3244,5.3266,5.3402,5.3189,5.3192,5.3195,0,5.2363,5.2434,5.259,5.2658,5.2692,5.2764,5.2843,5.291,5.2973,5.2988,5.304,5.3039,5.3133,5.3074,5.3202,5.3138,5.3179,5.3201,5.3207,5.3215,5.3148,5.3257,5.3446,5.3466,5.3225,5.3223,5.3221,0,5.2463,5.2598,5.2709,5.2744,5.2826,5.2877,5.2913,5.2973,5.3022,5.309,5.3122,5.3198,5.324,5.3299,5.3318,5.3273,5.3446,5.3388,5.346,5.3459,5.3495,5.3493,5.3693,5.3523,5.3523,5.3522,5.3522,0,5.2617,5.2712,5.2755,5.2823,5.293,5.2949,5.3054,5.3087,5.314,5.3213,5.3208,5.3277,5.3298,5.337,5.3385,5.3489,5.3508,5.3522,5.3524,5.3522,5.352,5.3548,5.3539,5.3528,5.3527,5.3525,5.3525,0,5.2746,5.2779,5.29,5.2969,5.2989,5.3064,5.3122,5.3187,5.3214,5.3307,5.333,5.3371,5.3455,5.3481,5.3581,5.3591,5.3713,5.3707,5.3693,5.3693,5.3763,5.3756,5.3988,5.4019,5.3829,5.3831,5.3833,0,5.2842,5.2916,5.2994,5.3045,5.3084,5.3164,5.3216,5.3238,5.3291,5.3369,5.3425,5.3509,5.3577,5.3712,5.3749,5.3827,5.3822,5.3898,5.3834,5.3829,5.3823,5.3819,5.3826,5.391,5.3912,5.3913,5.3915,0,5.3008,5.3021,5.3097,5.3179,5.3242,5.3307,5.3369,5.341,5.3441,5.3501,5.3589,5.3642,5.3747,5.383,5.3909,5.3944,5.3935,5.3935,5.3956,5.3954,5.3943,5.395,5.3726,5.3929,5.3928,5.3927,5.3926,5.3926,5.3123,5.3189,5.3255,5.334,5.339,5.3449,5.3515,5.3551,5.3626,5.3715,5.3723,5.3818,5.3879,5.3984,5.4024,5.4097,5.4075,5.4104,5.4112,5.4119,5.4125,5.3932,5.4111,5.4111,5.411,5.411,5.411,0,5.3289,5.3332,5.341,5.3499,5.3566,5.3555,5.3624,5.368,5.3765,5.3824,5.3893,5.3994,5.4076,5.4121,5.4202,5.4252,5.425,5.4272,5.4268,5.4276,5.414,5.4114,5.4273,5.4273,5.4273,5.4273,5.4273,5.4273,5.3383,5.3494,5.3515,5.3651,5.3693,5.3788,5.3829,5.3883,5.3931,5.4045,5.4114,5.4144,5.4198,5.4283,5.4357,5.4368,5.4398,5.4423,5.4431,5.4303,5.4286,5.427,5.4246,5.4429,5.443,5.4562,5.4563,5.4564]}]]